James M Cox Dayton International (DAY)

 

Airport Diagram
Current Weather/Forecast (VFR Conditions)
METAR KDAY 132256Z 02008KT 10SM SCT046 BKN240 28/18 A3003 RMK AO2 SLP161 T02830183
TAF KDAY 132056Z 1321/1418 06007KT P6SM SCT045 BKN200 FM140100 03003KT P6SM FEW060 OVC200 FM141100 05004KT P6SM SCT060 OVC180 FM141700 08007KT P6SM BKN060 OVC150

Airport Information

All Charts
General
Chart Name View
AIRPORT DIAGRAM
TAKEOFF MINIMUMS
ALTERNATE MINIMUMS
HOT SPOT

Departures
Chart Name Download
DAYTON SEVEN
DAYTON SEVEN, CONT.1

Arrivals
Chart Name Download
DANEI THREE
KEKEE FOUR

Approaches
Chart Name Download
ILS OR LOC RWY 06L
ILS OR LOC RWY 18
ILS OR LOC RWY 24L
ILS OR LOC RWY 24R
ILS RWY 06L (CAT II - III)
RNAV (RNP) Y RWY 06L
RNAV (RNP) Y RWY 24R
RNAV (GPS) RWY 06R
RNAV (GPS) RWY 18
RNAV (GPS) RWY 24L
RNAV (GPS) RWY 36
RNAV (GPS) Z RWY 06L
RNAV (GPS) Z RWY 24R


Airport Statistics
Departures Arrivals Local
All Collected Stats since June 2016: 424 300 7
2020 Stats: 105 76 1
August Stats: 9 4 0

Inbound Traffic (Arrivals) - 0

No inbound traffic.


Outbound Traffic (Departures) - 0

No outbound traffic.


Local Traffic (Pattern) - 0

No local traffic.